Hourly Data Report for June 18, 2021

TORONTO CITY
ONTARIO
Current Station Operator: ECCC - MSC

43°40'00.000" N
79°24'00.000" W
112.50 m
6158355
71508
XTO

Download Data

Hourly Data (June 2021)
Hourly Data Report for June 18, 2021
TIME
LST
Temp Definition
°C
Dew Point Definition
°C
Rel Hum Definition
%
Precip. Amount Definition
mm

Wind Dir Definition
10's deg

Wind Spd Definition
km/h
Visibility Definition
km
Stn Press Definition
kPa
Hmdx Definition


Wind Chill Definition


Weather Definition


00:00 17.9 10.0 60 0.0       99.95     LegendNANA
01:00 17.1 10.7 66 0.0       99.93     LegendNANA
02:00 16.9 9.7 62 0.0       99.85     LegendNANA
03:00 18.1 10.4 61 0.0       99.80     LegendNANA
04:00 18.5 11.8 65 0.0       99.72     LegendNANA
05:00 18.9 12.1 65 0.0       99.69     LegendNANA
06:00 19.2 12.7 66 0.0       99.73     LegendNANA
07:00 19.6 13.2 66 0.0       99.70     LegendNANA
08:00 17.9 15.5 86 0.8       99.82     LegendNANA
09:00 17.6 16.2 92 2.2       99.73     LegendNANA
10:00 18.5 16.9 90 0.2       99.69     LegendNANA
11:00 18.1 16.5 90 0.9       99.70     LegendNANA
12:00 18.5 17.1 92 2.0       99.65     LegendNANA
13:00 19.0 17.6 92 1.4       99.55     LegendNANA
14:00 19.9 16.7 82 0.0       99.42     LegendNANA
15:00 21.0 16.5 75 0.0       99.41 26   LegendNANA
16:00 21.8 16.2 71 0.0       99.33 27   LegendNANA
17:00 22.7 16.6 69 0.0       99.21 28   LegendNANA
18:00 22.5 16.6 69 0.0       99.17 28   LegendNANA
19:00 21.9 16.9 73 0.0       99.17 27   LegendNANA
20:00 22.8 18.1 75 0.0       99.13 29   LegendNANA
21:00 21.5 17.3 77 0.0       99.14 27   LegendNANA
22:00 19.9 17.2 84 0.0       99.17     LegendNANA
23:00 20.2 17.7 86 0.0       99.24 26   LegendNANA

Notes on Data Quality.

Legend

  • E = Estimated
  • M = Missing
  • NA = Not Available*
  • [empty] = Indicates an unobserved value
Date modified: